owner,sensor,date,latitude,longitude,vertical_datum,mass_concentration_of_oxygen_in_sea_water,qcFlag 
SCCF RECON,ioos:station:SCCF:18:1,2014-11-01T00:00:00Z,26.6955,-81.8138,1.43,4.87,1111122 
SCCF RECON,ioos:station:SCCF:18:1,2014-11-01T01:00:00Z,26.6955,-81.8138,1.5,5.29,1111122 
SCCF RECON,ioos:station:SCCF:18:1,2014-11-01T02:00:00Z,26.6955,-81.8138,1.56,5.55,1111122 
SCCF RECON,ioos:station:SCCF:18:1,2014-11-01T03:00:00Z,26.6955,-81.8138,1.608,5.55,1111122 
SCCF RECON,ioos:station:SCCF:18:1,2014-11-01T04:00:00Z,26.6955,-81.8138,1.64,5.65,1111122 
SCCF RECON,ioos:station:SCCF:18:1,2014-11-01T05:00:00Z,26.6955,-81.8138,1.66,5.61,1111122 
SCCF RECON,ioos:station:SCCF:18:1,2014-11-01T06:00:00Z,26.6955,-81.8138,1.629,5.56,1111122 
SCCF RECON,ioos:station:SCCF:18:1,2014-11-01T07:00:00Z,26.6955,-81.8138,1.56,5.47,1111122 
SCCF RECON,ioos:station:SCCF:18:1,2014-11-01T08:00:00Z,26.6955,-81.8138,1.5,5.51,1111122 
SCCF RECON,ioos:station:SCCF:18:1,2014-11-01T09:00:00Z,26.6955,-81.8138,1.47,4.65,1111122 
SCCF RECON,ioos:station:SCCF:18:1,2014-11-01T10:00:00Z,26.6955,-81.8138,1.46,4.74,1111122 
SCCF RECON,ioos:station:SCCF:18:1,2014-11-01T11:00:00Z,26.6955,-81.8138,1.5,4.78,1111122 
SCCF RECON,ioos:station:SCCF:18:1,2014-11-01T12:00:00Z,26.6955,-81.8138,1.6,5.09,1111122 
SCCF RECON,ioos:station:SCCF:18:1,2014-11-01T13:00:00Z,26.6955,-81.8138,1.673,5.17,1111122 
SCCF RECON,ioos:station:SCCF:18:1,2014-11-01T14:00:00Z,26.6955,-81.8138,1.69,5.33,1111122 
SCCF RECON,ioos:station:SCCF:18:1,2014-11-01T15:00:00Z,26.6955,-81.8138,1.72,5.24,1111122 
SCCF RECON,ioos:station:SCCF:18:1,2014-11-01T16:00:00Z,26.6955,-81.8138,1.76,5.54,1111122 
SCCF RECON,ioos:station:SCCF:18:1,2014-11-01T17:00:00Z,26.6955,-81.8138,1.72,5.55,1111122 
SCCF RECON,ioos:station:SCCF:18:1,2014-11-01T18:00:00Z,26.6955,-81.8138,1.64,5.45,1111122 
SCCF RECON,ioos:station:SCCF:18:1,2014-11-01T19:00:00Z,26.6955,-81.8138,1.59,5.13,1111122 
SCCF RECON,ioos:station:SCCF:18:1,2014-11-01T20:00:00Z,26.6955,-81.8138,1.505,5.75,1111122 
SCCF RECON,ioos:station:SCCF:18:1,2014-11-01T21:00:00Z,26.6955,-81.8138,1.5,6.06,1111122 
SCCF RECON,ioos:station:SCCF:18:1,2014-11-01T22:00:00Z,26.6955,-81.8138,1.46,5.92,1111122 
SCCF RECON,ioos:station:SCCF:18:1,2014-11-01T23:00:00Z,26.6955,-81.8138,1.4,5.99,1111122 
SCCF RECON,ioos:station:SCCF:18:1,2014-11-02T00:00:00Z,26.6955,-81.8138,1.38,5.91,1111122 
SCCF RECON,ioos:station:SCCF:18:1,2014-11-02T01:00:00Z,26.6955,-81.8138,1.37,5.87,1111122 
SCCF RECON,ioos:station:SCCF:18:1,2014-11-02T02:00:00Z,26.6955,-81.8138,1.41,5.78,1111122 
SCCF RECON,ioos:station:SCCF:18:1,2014-11-02T03:00:00Z,26.6955,-81.8138,1.486,5.67,1111122 
SCCF RECON,ioos:station:SCCF:18:1,2014-11-02T04:00:00Z,26.6955,-81.8138,1.52,5.75,1111122 
SCCF RECON,ioos:station:SCCF:18:1,2014-11-02T05:00:00Z,26.6955,-81.8138,1.52,5.86,1111122 
SCCF RECON,ioos:station:SCCF:18:1,2014-11-02T06:00:00Z,26.6955,-81.8138,1.489,5.84,1111122 
SCCF RECON,ioos:station:SCCF:18:1,2014-11-02T07:00:00Z,26.6955,-81.8138,1.448,5.95,1111122 
SCCF RECON,ioos:station:SCCF:18:1,2014-11-02T08:00:00Z,26.6955,-81.8138,1.41,5.7,1111122 
SCCF RECON,ioos:station:SCCF:18:1,2014-11-02T09:00:00Z,26.6955,-81.8138,1.38,5.88,1111122 
SCCF RECON,ioos:station:SCCF:18:1,2014-11-02T10:00:00Z,26.6955,-81.8138,1.34,5.83,1111122 
SCCF RECON,ioos:station:SCCF:18:1,2014-11-02T11:00:00Z,26.6955,-81.8138,1.29,5.88,1111122 
SCCF RECON,ioos:station:SCCF:18:1,2014-11-02T12:00:00Z,26.6955,-81.8138,1.27,5.81,1111122 
SCCF RECON,ioos:station:SCCF:18:1,2014-11-02T13:00:00Z,26.6955,-81.8138,1.26,5.76,1111122 
SCCF RECON,ioos:station:SCCF:18:1,2014-11-02T14:00:00Z,26.6955,-81.8138,1.32,5.76,1111122 
SCCF RECON,ioos:station:SCCF:18:1,2014-11-02T15:00:00Z,26.6955,-81.8138,1.39,5.57,1111122 
SCCF RECON,ioos:station:SCCF:18:1,2014-11-02T16:00:00Z,26.6955,-81.8138,1.448,5.94,1111122 
SCCF RECON,ioos:station:SCCF:18:1,2014-11-02T17:00:00Z,26.6955,-81.8138,1.47,5.98,1111122 
SCCF RECON,ioos:station:SCCF:18:1,2014-11-02T18:00:00Z,26.6955,-81.8138,1.471,6.16,1111122 
SCCF RECON,ioos:station:SCCF:18:1,2014-11-02T19:00:00Z,26.6955,-81.8138,1.43,6.31,1111122 
SCCF RECON,ioos:station:SCCF:18:1,2014-11-02T20:00:00Z,26.6955,-81.8138,1.375,6.2,1111122 
SCCF RECON,ioos:station:SCCF:18:1,2014-11-02T21:00:00Z,26.6955,-81.8138,1.32,6.73,1111122 
SCCF RECON,ioos:station:SCCF:18:1,2014-11-02T22:00:00Z,26.6955,-81.8138,1.3,6.08,1111122 
SCCF RECON,ioos:station:SCCF:18:1,2014-11-02T23:00:00Z,26.6955,-81.8138,1.28,6.39,1111122 
SCCF RECON,ioos:station:SCCF:18:1,2014-11-03T00:00:00Z,26.6955,-81.8138,1.28,6.23,1111122 
SCCF RECON,ioos:station:SCCF:18:1,2014-11-03T01:00:00Z,26.6955,-81.8138,1.34,6.1,1111122 
SCCF RECON,ioos:station:SCCF:18:1,2014-11-03T02:00:00Z,26.6955,-81.8138,1.41,6.1,1111122 
SCCF RECON,ioos:station:SCCF:18:1,2014-11-03T03:00:00Z,26.6955,-81.8138,1.48,6.24,1111122 
SCCF RECON,ioos:station:SCCF:18:1,2014-11-03T04:00:00Z,26.6955,-81.8138,1.512,6.19,1111122 
SCCF RECON,ioos:station:SCCF:18:1,2014-11-03T05:00:00Z,26.6955,-81.8138,1.57,6.51,1111122 
SCCF RECON,ioos:station:SCCF:18:1,2014-11-03T06:00:00Z,26.6955,-81.8138,1.62,6.51,1111122 
SCCF RECON,ioos:station:SCCF:18:1,2014-11-03T07:00:00Z,26.6955,-81.8138,1.62,6.27,1111122 
SCCF RECON,ioos:station:SCCF:18:1,2014-11-03T08:00:00Z,26.6955,-81.8138,1.55,6.35,1111122 
SCCF RECON,ioos:station:SCCF:18:1,2014-11-03T09:00:00Z,26.6955,-81.8138,1.47,6.3,1111122 
SCCF RECON,ioos:station:SCCF:18:1,2014-11-03T10:00:00Z,26.6955,-81.8138,1.42,6.17,1111122 
SCCF RECON,ioos:station:SCCF:18:1,2014-11-03T11:00:00Z,26.6955,-81.8138,1.38,6.09,1111122 
SCCF RECON,ioos:station:SCCF:18:1,2014-11-03T12:00:00Z,26.6955,-81.8138,1.35,6.06,1111122 
SCCF RECON,ioos:station:SCCF:18:1,2014-11-03T13:00:00Z,26.6955,-81.8138,1.33,5.93,1111122 
SCCF RECON,ioos:station:SCCF:18:1,2014-11-03T14:00:00Z,26.6955,-81.8138,1.34,5.93,1111122 
SCCF RECON,ioos:station:SCCF:18:1,2014-11-03T15:00:00Z,26.6955,-81.8138,1.41,6.16,1111122 
SCCF RECON,ioos:station:SCCF:18:1,2014-11-03T16:00:00Z,26.6955,-81.8138,1.476,6.45,1111122 
SCCF RECON,ioos:station:SCCF:18:1,2014-11-03T17:00:00Z,26.6955,-81.8138,1.52,6.35,1111122 
SCCF RECON,ioos:station:SCCF:18:1,2014-11-03T18:00:00Z,26.6955,-81.8138,1.531,6.75,1111122 
SCCF RECON,ioos:station:SCCF:18:1,2014-11-03T19:00:00Z,26.6955,-81.8138,1.53,6.76,1111122 
SCCF RECON,ioos:station:SCCF:18:1,2014-11-03T20:00:00Z,26.6955,-81.8138,1.49,6.83,1111122 
SCCF RECON,ioos:station:SCCF:18:1,2014-11-03T21:00:00Z,26.6955,-81.8138,1.423,6.45,1111122 
SCCF RECON,ioos:station:SCCF:18:1,2014-11-03T22:00:00Z,26.6955,-81.8138,1.38,6.44,1111122 
SCCF RECON,ioos:station:SCCF:18:1,2014-11-03T23:00:00Z,26.6955,-81.8138,1.35,6.37,1111122 
SCCF RECON,ioos:station:SCCF:18:1,2014-11-04T00:00:00Z,26.6955,-81.8138,1.33,6.44,1111122 
SCCF RECON,ioos:station:SCCF:18:1,2014-11-04T01:00:00Z,26.6955,-81.8138,1.34,6.38,1111122 
SCCF RECON,ioos:station:SCCF:18:1,2014-11-04T02:00:00Z,26.6955,-81.8138,1.4,6.45,1111122 
SCCF RECON,ioos:station:SCCF:18:1,2014-11-04T03:00:00Z,26.6955,-81.8138,1.47,6.49,1111122 
SCCF RECON,ioos:station:SCCF:18:1,2014-11-04T04:00:00Z,26.6955,-81.8138,1.53,6.63,1111122 
SCCF RECON,ioos:station:SCCF:18:1,2014-11-04T05:00:00Z,26.6955,-81.8138,1.58,6.91,1111122 
SCCF RECON,ioos:station:SCCF:18:1,2014-11-04T06:00:00Z,26.6955,-81.8138,1.63,6.98,1111122 
SCCF RECON,ioos:station:SCCF:18:1,2014-11-04T07:00:00Z,26.6955,-81.8138,1.64,6.74,1111122 
SCCF RECON,ioos:station:SCCF:18:1,2014-11-04T08:00:00Z,26.6955,-81.8138,1.584,6.49,1111122 
SCCF RECON,ioos:station:SCCF:18:1,2014-11-04T09:00:00Z,26.6955,-81.8138,1.5,6.48,1111122 
SCCF RECON,ioos:station:SCCF:18:1,2014-11-04T10:00:00Z,26.6955,-81.8138,1.449,6.45,1111122 
SCCF RECON,ioos:station:SCCF:18:1,2014-11-04T11:00:00Z,26.6955,-81.8138,1.417,6.35,1111122 
SCCF RECON,ioos:station:SCCF:18:1,2014-11-04T12:00:00Z,26.6955,-81.8138,1.38,6.27,1111122 
SCCF RECON,ioos:station:SCCF:18:1,2014-11-04T13:00:00Z,26.6955,-81.8138,1.328,6.23,1111122 
SCCF RECON,ioos:station:SCCF:18:1,2014-11-04T14:00:00Z,26.6955,-81.8138,1.33,6.19,1111122 
SCCF RECON,ioos:station:SCCF:18:1,2014-11-04T15:00:00Z,26.6955,-81.8138,1.4,6.44,1111122 
SCCF RECON,ioos:station:SCCF:18:1,2014-11-04T16:00:00Z,26.6955,-81.8138,1.48,6.8,1111122 
SCCF RECON,ioos:station:SCCF:18:1,2014-11-04T17:00:00Z,26.6955,-81.8138,1.523,6.64,1111122 
SCCF RECON,ioos:station:SCCF:18:1,2014-11-04T18:00:00Z,26.6955,-81.8138,1.557,6.99,1111122 
SCCF RECON,ioos:station:SCCF:18:1,2014-11-04T19:00:00Z,26.6955,-81.8138,1.589,7.21,1111122 
SCCF RECON,ioos:station:SCCF:18:1,2014-11-04T20:00:00Z,26.6955,-81.8138,1.596,7.12,1111122 
SCCF RECON,ioos:station:SCCF:18:1,2014-11-04T21:00:00Z,26.6955,-81.8138,1.56,7.07,1111122 
SCCF RECON,ioos:station:SCCF:18:1,2014-11-04T22:00:00Z,26.6955,-81.8138,1.492,6.85,1111122 
SCCF RECON,ioos:station:SCCF:18:1,2014-11-04T23:00:00Z,26.6955,-81.8138,1.45,6.75,1111122 
SCCF RECON,ioos:station:SCCF:18:1,2014-11-05T00:00:00Z,26.6955,-81.8138,1.42,6.7,1111122 
SCCF RECON,ioos:station:SCCF:18:1,2014-11-05T01:00:00Z,26.6955,-81.8138,1.402,6.79,1111122 
SCCF RECON,ioos:station:SCCF:18:1,2014-11-05T02:00:00Z,26.6955,-81.8138,1.43,6.57,1111122 
SCCF RECON,ioos:station:SCCF:18:1,2014-11-05T03:00:00Z,26.6955,-81.8138,1.53,6.99,1111122 
SCCF RECON,ioos:station:SCCF:18:1,2014-11-05T04:00:00Z,26.6955,-81.8138,1.62,6.9,1111122 
SCCF RECON,ioos:station:SCCF:18:1,2014-11-05T05:00:00Z,26.6955,-81.8138,1.68,6.99,1111122 
SCCF RECON,ioos:station:SCCF:18:1,2014-11-05T06:00:00Z,26.6955,-81.8138,1.73,7.44,1111122 
SCCF RECON,ioos:station:SCCF:18:1,2014-11-05T07:00:00Z,26.6955,-81.8138,1.774,7.75,1111122 
SCCF RECON,ioos:station:SCCF:18:1,2014-11-05T08:00:00Z,26.6955,-81.8138,1.76,7.26,1111122 
SCCF RECON,ioos:station:SCCF:18:1,2014-11-05T09:00:00Z,26.6955,-81.8138,1.67,6.67,1111122 
SCCF RECON,ioos:station:SCCF:18:1,2014-11-05T10:00:00Z,26.6955,-81.8138,1.59,6.49,1111122 
SCCF RECON,ioos:station:SCCF:18:1,2014-11-05T11:00:00Z,26.6955,-81.8138,1.54,6.52,1111122 
SCCF RECON,ioos:station:SCCF:18:1,2014-11-05T12:00:00Z,26.6955,-81.8138,1.491,6.46,1111122 
SCCF RECON,ioos:station:SCCF:18:1,2014-11-05T13:00:00Z,26.6955,-81.8138,1.441,6.39,1111122 
SCCF RECON,ioos:station:SCCF:18:1,2014-11-05T14:00:00Z,26.6955,-81.8138,1.39,6.38,1111122 
SCCF RECON,ioos:station:SCCF:18:1,2014-11-05T15:00:00Z,26.6955,-81.8138,1.38,6.42,1111122 
SCCF RECON,ioos:station:SCCF:18:1,2014-11-05T16:00:00Z,26.6955,-81.8138,1.44,6.83,1111122 
SCCF RECON,ioos:station:SCCF:18:1,2014-11-05T17:00:00Z,26.6955,-81.8138,1.519,7.34,1111122 
SCCF RECON,ioos:station:SCCF:18:1,2014-11-05T18:00:00Z,26.6955,-81.8138,1.578,7.23,1111122 
SCCF RECON,ioos:station:SCCF:18:1,2014-11-05T19:00:00Z,26.6955,-81.8138,1.621,8.23,1111122 
SCCF RECON,ioos:station:SCCF:18:1,2014-11-05T20:00:00Z,26.6955,-81.8138,1.66,8.29,1111122 
SCCF RECON,ioos:station:SCCF:18:1,2014-11-05T21:00:00Z,26.6955,-81.8138,1.669,7.79,1111122 
SCCF RECON,ioos:station:SCCF:18:1,2014-11-05T22:00:00Z,26.6955,-81.8138,1.61,7.83,1111122 
SCCF RECON,ioos:station:SCCF:18:1,2014-11-05T23:00:00Z,26.6955,-81.8138,1.54,7.13,1111122 
SCCF RECON,ioos:station:SCCF:18:1,2014-11-06T00:00:00Z,26.6955,-81.8138,1.5,6.99,1111122 
SCCF RECON,ioos:station:SCCF:18:1,2014-11-06T01:00:00Z,26.6955,-81.8138,1.48,7.05,1111122 
SCCF RECON,ioos:station:SCCF:18:1,2014-11-06T02:00:00Z,26.6955,-81.8138,1.48,6.98,1111122 
SCCF RECON,ioos:station:SCCF:18:1,2014-11-06T03:00:00Z,26.6955,-81.8138,1.55,7.2,1111122 
SCCF RECON,ioos:station:SCCF:18:1,2014-11-06T04:00:00Z,26.6955,-81.8138,1.65,7.68,1111122 
SCCF RECON,ioos:station:SCCF:18:1,2014-11-06T05:00:00Z,26.6955,-81.8138,1.72,7.56,1111122 
SCCF RECON,ioos:station:SCCF:18:1,2014-11-06T06:00:00Z,26.6955,-81.8138,1.761,7.99,1111122 
SCCF RECON,ioos:station:SCCF:18:1,2014-11-06T07:00:00Z,26.6955,-81.8138,1.81,8.46,1111122 
SCCF RECON,ioos:station:SCCF:18:1,2014-11-06T08:00:00Z,26.6955,-81.8138,1.83,8.42,1111122 
SCCF RECON,ioos:station:SCCF:18:1,2014-11-06T09:00:00Z,26.6955,-81.8138,1.77,7.63,1111122 
SCCF RECON,ioos:station:SCCF:18:1,2014-11-06T10:00:00Z,26.6955,-81.8138,1.67,6.89,1111122 
SCCF RECON,ioos:station:SCCF:18:1,2014-11-06T11:00:00Z,26.6955,-81.8138,1.6,6.93,1111122 
SCCF RECON,ioos:station:SCCF:18:1,2014-11-06T12:00:00Z,26.6955,-81.8138,1.551,6.84,1111122 
SCCF RECON,ioos:station:SCCF:18:1,2014-11-06T13:00:00Z,26.6955,-81.8138,1.509,6.63,1111122 
SCCF RECON,ioos:station:SCCF:18:1,2014-11-06T14:00:00Z,26.6955,-81.8138,1.44,6.58,1111122 
SCCF RECON,ioos:station:SCCF:18:1,2014-11-06T15:00:00Z,26.6955,-81.8138,1.39,6.6,1111122 
SCCF RECON,ioos:station:SCCF:18:1,2014-11-06T16:00:00Z,26.6955,-81.8138,1.4,6.96,1111122 
SCCF RECON,ioos:station:SCCF:18:1,2014-11-06T17:00:00Z,26.6955,-81.8138,1.474,7.43,1111122 
SCCF RECON,ioos:station:SCCF:18:1,2014-11-06T18:00:00Z,26.6955,-81.8138,1.564,7.92,1111122 
SCCF RECON,ioos:station:SCCF:18:1,2014-11-06T19:00:00Z,26.6955,-81.8138,1.624,9.13,1111122 
SCCF RECON,ioos:station:SCCF:18:1,2014-11-06T20:00:00Z,26.6955,-81.8138,1.671,9.84,1111122 
SCCF RECON,ioos:station:SCCF:18:1,2014-11-06T21:00:00Z,26.6955,-81.8138,1.73,10.59,1111122 
SCCF RECON,ioos:station:SCCF:18:1,2014-11-06T22:00:00Z,26.6955,-81.8138,1.74,10.73,1111122 
SCCF RECON,ioos:station:SCCF:18:1,2014-11-06T23:00:00Z,26.6955,-81.8138,1.68,9.81,1111122 
SCCF RECON,ioos:station:SCCF:18:1,2014-11-07T00:00:00Z,26.6955,-81.8138,1.61,8.84,1111122 
SCCF RECON,ioos:station:SCCF:18:1,2014-11-07T01:00:00Z,26.6955,-81.8138,1.56,7.78,1111122 
SCCF RECON,ioos:station:SCCF:18:1,2014-11-07T02:00:00Z,26.6955,-81.8138,1.53,7.65,1111122 
SCCF RECON,ioos:station:SCCF:18:1,2014-11-07T03:00:00Z,26.6955,-81.8138,1.55,6.89,1111122 
SCCF RECON,ioos:station:SCCF:18:1,2014-11-07T04:00:00Z,26.6955,-81.8138,1.63,9.31,1111122 
SCCF RECON,ioos:station:SCCF:18:1,2014-11-07T05:00:00Z,26.6955,-81.8138,1.729,8.31,1111122 
SCCF RECON,ioos:station:SCCF:18:1,2014-11-07T06:00:00Z,26.6955,-81.8138,1.79,9.35,1111122 
SCCF RECON,ioos:station:SCCF:18:1,2014-11-07T07:00:00Z,26.6955,-81.8138,1.84,9.33,1111122 
SCCF RECON,ioos:station:SCCF:18:1,2014-11-07T08:00:00Z,26.6955,-81.8138,1.88,9.95,1111122 
SCCF RECON,ioos:station:SCCF:18:1,2014-11-07T09:00:00Z,26.6955,-81.8138,1.863,9.22,1111122 
SCCF RECON,ioos:station:SCCF:18:1,2014-11-07T10:00:00Z,26.6955,-81.8138,1.78,7.85,1111122 
SCCF RECON,ioos:station:SCCF:18:1,2014-11-07T11:00:00Z,26.6955,-81.8138,1.69,7.46,1111122 
SCCF RECON,ioos:station:SCCF:18:1,2014-11-07T12:00:00Z,26.6955,-81.8138,1.63,7.32,1111122 
SCCF RECON,ioos:station:SCCF:18:1,2014-11-07T13:00:00Z,26.6955,-81.8138,1.59,6.93,1111122 
SCCF RECON,ioos:station:SCCF:18:1,2014-11-07T14:00:00Z,26.6955,-81.8138,1.521,6.8,1111122 
SCCF RECON,ioos:station:SCCF:18:1,2014-11-07T15:00:00Z,26.6955,-81.8138,1.456,6.82,1111122 
SCCF RECON,ioos:station:SCCF:18:1,2014-11-07T16:00:00Z,26.6955,-81.8138,1.401,7.04,1111122 
SCCF RECON,ioos:station:SCCF:18:1,2014-11-07T17:00:00Z,26.6955,-81.8138,1.419,6.73,1111122 
SCCF RECON,ioos:station:SCCF:18:1,2014-11-07T18:00:00Z,26.6955,-81.8138,1.496,7.84,1111122 
SCCF RECON,ioos:station:SCCF:18:1,2014-11-07T19:00:00Z,26.6955,-81.8138,1.586,8.54,1111122 
SCCF RECON,ioos:station:SCCF:18:1,2014-11-07T20:00:00Z,26.6955,-81.8138,1.659,8.75,1111122 
SCCF RECON,ioos:station:SCCF:18:1,2014-11-07T21:00:00Z,26.6955,-81.8138,1.71,10.37,1111122 
SCCF RECON,ioos:station:SCCF:18:1,2014-11-07T22:00:00Z,26.6955,-81.8138,1.75,10.28,1111122 
SCCF RECON,ioos:station:SCCF:18:1,2014-11-07T23:00:00Z,26.6955,-81.8138,1.75,11.47,1111122 
SCCF RECON,ioos:station:SCCF:18:1,2014-11-08T00:00:00Z,26.6955,-81.8138,1.694,8.86,1111122 
SCCF RECON,ioos:station:SCCF:18:1,2014-11-08T01:00:00Z,26.6955,-81.8138,1.62,8.41,1111122 
SCCF RECON,ioos:station:SCCF:18:1,2014-11-08T02:00:00Z,26.6955,-81.8138,1.58,7.17,1111122 
SCCF RECON,ioos:station:SCCF:18:1,2014-11-08T03:00:00Z,26.6955,-81.8138,1.57,7.79,1111122 
SCCF RECON,ioos:station:SCCF:18:1,2014-11-08T04:00:00Z,26.6955,-81.8138,1.62,7.29,1111122 
SCCF RECON,ioos:station:SCCF:18:1,2014-11-08T05:00:00Z,26.6955,-81.8138,1.7,8.34,1111122 
SCCF RECON,ioos:station:SCCF:18:1,2014-11-08T06:00:00Z,26.6955,-81.8138,1.77,8.08,1111122 
SCCF RECON,ioos:station:SCCF:18:1,2014-11-08T07:00:00Z,26.6955,-81.8138,1.82,8.17,1111122 
SCCF RECON,ioos:station:SCCF:18:1,2014-11-08T08:00:00Z,26.6955,-81.8138,1.87,8.87,1111122 
SCCF RECON,ioos:station:SCCF:18:1,2014-11-08T09:00:00Z,26.6955,-81.8138,1.89,8.8,1111122 
SCCF RECON,ioos:station:SCCF:18:1,2014-11-08T10:00:00Z,26.6955,-81.8138,1.84,7.66,1111122 
SCCF RECON,ioos:station:SCCF:18:1,2014-11-08T11:00:00Z,26.6955,-81.8138,1.75,7.13,1111122 
SCCF RECON,ioos:station:SCCF:18:1,2014-11-08T12:00:00Z,26.6955,-81.8138,1.67,7.09,1111122 
SCCF RECON,ioos:station:SCCF:18:1,2014-11-08T13:00:00Z,26.6955,-81.8138,1.613,6.77,1111122 
SCCF RECON,ioos:station:SCCF:18:1,2014-11-08T14:00:00Z,26.6955,-81.8138,1.56,6.61,1111122 
SCCF RECON,ioos:station:SCCF:18:1,2014-11-08T15:00:00Z,26.6955,-81.8138,1.5,6.63,1111122 
SCCF RECON,ioos:station:SCCF:18:1,2014-11-08T16:00:00Z,26.6955,-81.8138,1.43,6.62,1111122 
SCCF RECON,ioos:station:SCCF:18:1,2014-11-08T17:00:00Z,26.6955,-81.8138,1.39,6.68,1111122 
SCCF RECON,ioos:station:SCCF:18:1,2014-11-08T18:00:00Z,26.6955,-81.8138,1.43,6.38,1111122 
SCCF RECON,ioos:station:SCCF:18:1,2014-11-08T19:00:00Z,26.6955,-81.8138,1.521,7.35,1111122 
SCCF RECON,ioos:station:SCCF:18:1,2014-11-08T20:00:00Z,26.6955,-81.8138,1.61,7.55,1111122 
SCCF RECON,ioos:station:SCCF:18:1,2014-11-08T21:00:00Z,26.6955,-81.8138,1.66,7.78,1111122 
SCCF RECON,ioos:station:SCCF:18:1,2014-11-08T22:00:00Z,26.6955,-81.8138,1.704,8.81,1111122 
SCCF RECON,ioos:station:SCCF:18:1,2014-11-08T23:00:00Z,26.6955,-81.8138,1.74,8.74,1111122 
SCCF RECON,ioos:station:SCCF:18:1,2014-11-09T00:00:00Z,26.6955,-81.8138,1.725,8.03,1111122 
SCCF RECON,ioos:station:SCCF:18:1,2014-11-09T01:00:00Z,26.6955,-81.8138,1.67,7.62,1111122 
SCCF RECON,ioos:station:SCCF:18:1,2014-11-09T02:00:00Z,26.6955,-81.8138,1.599,6.93,1111122 
SCCF RECON,ioos:station:SCCF:18:1,2014-11-09T03:00:00Z,26.6955,-81.8138,1.54,7.09,1111122 
SCCF RECON,ioos:station:SCCF:18:1,2014-11-09T04:00:00Z,26.6955,-81.8138,1.53,6.43,1111122 
SCCF RECON,ioos:station:SCCF:18:1,2014-11-09T05:00:00Z,26.6955,-81.8138,1.59,6.25,1111122 
SCCF RECON,ioos:station:SCCF:18:1,2014-11-09T06:00:00Z,26.6955,-81.8138,1.66,6.41,1111122 
SCCF RECON,ioos:station:SCCF:18:1,2014-11-09T07:00:00Z,26.6955,-81.8138,1.72,6.4,1111122 
SCCF RECON,ioos:station:SCCF:18:1,2014-11-09T08:00:00Z,26.6955,-81.8138,1.752,6.46,1111122 
SCCF RECON,ioos:station:SCCF:18:1,2014-11-09T09:00:00Z,26.6955,-81.8138,1.79,6.65,1111122 
SCCF RECON,ioos:station:SCCF:18:1,2014-11-09T10:00:00Z,26.6955,-81.8138,1.82,6.76,1111122 
SCCF RECON,ioos:station:SCCF:18:1,2014-11-09T11:00:00Z,26.6955,-81.8138,1.79,6.35,1111122 
SCCF RECON,ioos:station:SCCF:18:1,2014-11-09T12:00:00Z,26.6955,-81.8138,1.709,6.26,1111122 
SCCF RECON,ioos:station:SCCF:18:1,2014-11-09T13:00:00Z,26.6955,-81.8138,1.62,6.06,1111122 
SCCF RECON,ioos:station:SCCF:18:1,2014-11-09T14:00:00Z,26.6955,-81.8138,1.56,6.18,1111122 
SCCF RECON,ioos:station:SCCF:18:1,2014-11-09T15:00:00Z,26.6955,-81.8138,1.51,6.01,1111122 
SCCF RECON,ioos:station:SCCF:18:1,2014-11-09T16:00:00Z,26.6955,-81.8138,1.44,5.9,1111122 
SCCF RECON,ioos:station:SCCF:18:1,2014-11-09T17:00:00Z,26.6955,-81.8138,1.38,5.95,1111122 
SCCF RECON,ioos:station:SCCF:18:1,2014-11-09T18:00:00Z,26.6955,-81.8138,1.34,5.87,1111122 
SCCF RECON,ioos:station:SCCF:18:1,2014-11-09T19:00:00Z,26.6955,-81.8138,1.37,5.82,1111122 
SCCF RECON,ioos:station:SCCF:18:1,2014-11-09T20:00:00Z,26.6955,-81.8138,1.44,6.0,1111122 
SCCF RECON,ioos:station:SCCF:18:1,2014-11-09T21:00:00Z,26.6955,-81.8138,1.5,6.09,1111122 
SCCF RECON,ioos:station:SCCF:18:1,2014-11-09T22:00:00Z,26.6955,-81.8138,1.55,6.1,1111122 
SCCF RECON,ioos:station:SCCF:18:1,2014-11-09T23:00:00Z,26.6955,-81.8138,1.571,6.1,1111122 
SCCF RECON,ioos:station:SCCF:18:1,2014-11-10T00:00:00Z,26.6955,-81.8138,1.575,6.1,1111122 
SCCF RECON,ioos:station:SCCF:18:1,2014-11-10T01:00:00Z,26.6955,-81.8138,1.55,6.05,1111122 
SCCF RECON,ioos:station:SCCF:18:1,2014-11-10T02:00:00Z,26.6955,-81.8138,1.51,6.1,1111122 
SCCF RECON,ioos:station:SCCF:18:1,2014-11-10T03:00:00Z,26.6955,-81.8138,1.48,5.9,1111122 
SCCF RECON,ioos:station:SCCF:18:1,2014-11-10T04:00:00Z,26.6955,-81.8138,1.44,5.88,1111122 
SCCF RECON,ioos:station:SCCF:18:1,2014-11-10T05:00:00Z,26.6955,-81.8138,1.42,5.87,1111122 
SCCF RECON,ioos:station:SCCF:18:1,2014-11-10T06:00:00Z,26.6955,-81.8138,1.5,6.03,1111122 
SCCF RECON,ioos:station:SCCF:18:1,2014-11-10T07:00:00Z,26.6955,-81.8138,1.598,5.88,1111122 
SCCF RECON,ioos:station:SCCF:18:1,2014-11-10T08:00:00Z,26.6955,-81.8138,1.67,5.87,1111122 
SCCF RECON,ioos:station:SCCF:18:1,2014-11-10T09:00:00Z,26.6955,-81.8138,1.71,5.88,1111122 
SCCF RECON,ioos:station:SCCF:18:1,2014-11-10T10:00:00Z,26.6955,-81.8138,1.75,6.12,1111122 
SCCF RECON,ioos:station:SCCF:18:1,2014-11-10T11:00:00Z,26.6955,-81.8138,1.74,6.06,1111122 
SCCF RECON,ioos:station:SCCF:18:1,2014-11-10T12:00:00Z,26.6955,-81.8138,1.68,5.88,1111122 
SCCF RECON,ioos:station:SCCF:18:1,2014-11-10T13:00:00Z,26.6955,-81.8138,1.59,5.86,1111122 
SCCF RECON,ioos:station:SCCF:18:1,2014-11-10T14:00:00Z,26.6955,-81.8138,1.526,5.82,1111122 
SCCF RECON,ioos:station:SCCF:18:1,2014-11-10T15:00:00Z,26.6955,-81.8138,1.48,5.87,1111122 
SCCF RECON,ioos:station:SCCF:18:1,2014-11-10T16:00:00Z,26.6955,-81.8138,1.42,5.82,1111122 
SCCF RECON,ioos:station:SCCF:18:1,2014-11-10T17:00:00Z,26.6955,-81.8138,1.369,6.04,1111122 
SCCF RECON,ioos:station:SCCF:18:1,2014-11-10T18:00:00Z,26.6955,-81.8138,1.32,5.94,1111122 
SCCF RECON,ioos:station:SCCF:18:1,2014-11-10T19:00:00Z,26.6955,-81.8138,1.332,5.92,1111122 
SCCF RECON,ioos:station:SCCF:18:1,2014-11-10T20:00:00Z,26.6955,-81.8138,1.414,6.06,1111122 
SCCF RECON,ioos:station:SCCF:18:1,2014-11-10T21:00:00Z,26.6955,-81.8138,1.502,6.45,1111122 
SCCF RECON,ioos:station:SCCF:18:1,2014-11-10T22:00:00Z,26.6955,-81.8138,1.559,6.34,1111122 
SCCF RECON,ioos:station:SCCF:18:1,2014-11-10T23:00:00Z,26.6955,-81.8138,1.6,7.02,1111122 
SCCF RECON,ioos:station:SCCF:18:1,2014-11-11T00:00:00Z,26.6955,-81.8138,1.65,7.54,1111122 
SCCF RECON,ioos:station:SCCF:18:1,2014-11-11T01:00:00Z,26.6955,-81.8138,1.64,6.87,1111122 
SCCF RECON,ioos:station:SCCF:18:1,2014-11-11T02:00:00Z,26.6955,-81.8138,1.592,6.31,1111122 
SCCF RECON,ioos:station:SCCF:18:1,2014-11-11T03:00:00Z,26.6955,-81.8138,1.53,6.18,1111122 
SCCF RECON,ioos:station:SCCF:18:1,2014-11-11T04:00:00Z,26.6955,-81.8138,1.48,5.9,1111122 
SCCF RECON,ioos:station:SCCF:18:1,2014-11-11T05:00:00Z,26.6955,-81.8138,1.461,5.91,1111122 
SCCF RECON,ioos:station:SCCF:18:1,2014-11-11T06:00:00Z,26.6955,-81.8138,1.49,6.03,1111122 
SCCF RECON,ioos:station:SCCF:18:1,2014-11-11T07:00:00Z,26.6955,-81.8138,1.561,5.97,1111122 
SCCF RECON,ioos:station:SCCF:18:1,2014-11-11T08:00:00Z,26.6955,-81.8138,1.639,6.25,1111122 
SCCF RECON,ioos:station:SCCF:18:1,2014-11-11T09:00:00Z,26.6955,-81.8138,1.69,6.18,1111122 
SCCF RECON,ioos:station:SCCF:18:1,2014-11-11T10:00:00Z,26.6955,-81.8138,1.73,6.23,1111122 
SCCF RECON,ioos:station:SCCF:18:1,2014-11-11T11:00:00Z,26.6955,-81.8138,1.751,6.54,1111122 
SCCF RECON,ioos:station:SCCF:18:1,2014-11-11T12:00:00Z,26.6955,-81.8138,1.72,6.07,1111122 
SCCF RECON,ioos:station:SCCF:18:1,2014-11-11T13:00:00Z,26.6955,-81.8138,1.64,5.97,1111122 
SCCF RECON,ioos:station:SCCF:18:1,2014-11-11T14:00:00Z,26.6955,-81.8138,1.58,5.84,1111122 
SCCF RECON,ioos:station:SCCF:18:1,2014-11-11T15:00:00Z,26.6955,-81.8138,1.529,5.95,1111122 
SCCF RECON,ioos:station:SCCF:18:1,2014-11-11T16:00:00Z,26.6955,-81.8138,1.472,5.97,1111122 
SCCF RECON,ioos:station:SCCF:18:1,2014-11-11T17:00:00Z,26.6955,-81.8138,1.419,6.08,1111122 
SCCF RECON,ioos:station:SCCF:18:1,2014-11-11T18:00:00Z,26.6955,-81.8138,1.37,5.99,1111122 
SCCF RECON,ioos:station:SCCF:18:1,2014-11-11T19:00:00Z,26.6955,-81.8138,1.351,6.05,1111122 
SCCF RECON,ioos:station:SCCF:18:1,2014-11-11T20:00:00Z,26.6955,-81.8138,1.4,6.27,1111122 
SCCF RECON,ioos:station:SCCF:18:1,2014-11-11T21:00:00Z,26.6955,-81.8138,1.487,6.28,1111122 